[[{"header":{"parameterUnit":"m.s-1","parameterCategory":1,"la1":30.2992,"la2":30.254,"lo1":-89.0895,"lo2":-89.0443,"dy":0.0025,"dx":0.0025,"nx":19,"ny":19,"refTime":"2026-03-23T09:00:00:Z","depth":0,"parameterNumber":2,"parameterNumberName":"U-component_of_WINDS"},"data":[0,0,0,3.4263,3.4266,3.444,3.4441,3.467,3.4672,0,0,0,0,0,0,0,0,0,0,0,3.4214,3.4215,3.4262,3.4267,3.444,3.4441,3.467,3.4672,0,0,0,0,0,0,0,0,0,0,0,3.4213,3.4215,3.4217,3.4267,3.444,3.4441,3.4669,3.4536,0,0,0,0,0,0,0,0,0,0,3.4366,3.4323,3.4214,3.4217,3.4268,3.444,3.4441,3.453,3.4544,3.4594,0,3.4637,0,3.4658,3.4688,3.4689,0,0,0,3.4265,3.4311,3.4355,3.4217,3.427,3.444,3.4361,3.4538,3.4555,3.4613,3.464,3.4648,3.4662,3.4689,3.469,3.4973,3.4975,0,0,3.4256,3.4247,3.4343,3.4366,3.4338,3.4356,3.4367,3.4548,3.4577,3.4641,3.4654,3.4665,3.4691,3.4693,3.4972,3.4974,0,0,0,3.4229,3.424,3.428,3.4357,3.4387,3.4361,3.4374,3.4569,3.4582,3.4656,3.4668,3.4692,3.4695,3.4971,3.4973,3.503,0,0,0,3.4223,3.4224,3.4276,3.4272,3.4384,3.448,3.4391,3.457,3.4591,3.4667,3.4692,3.4697,3.4969,3.4972,3.5025,3.5058,0,0,0,3.4202,3.4222,3.4248,3.4271,3.4345,3.4477,3.4501,3.4575,3.4598,3.4689,3.4698,3.4968,3.4971,3.5021,3.5051,3.5128,0,0,0,3.4176,3.4298,3.4248,3.439,3.4344,3.4511,3.45,3.4626,3.471,3.4693,3.4969,3.4972,3.5019,3.5047,3.5124,3.519,3.5218,0,0,3.4325,3.4316,3.44,3.436,3.4533,3.4485,3.4668,3.4755,3.4774,3.4906,3.4913,3.5027,3.5051,3.5127,3.5376,3.5397,0,0,0,3.4444,3.4504,3.4552,3.463,3.4698,3.4759,3.4819,3.4852,3.4964,3.4839,3.5076,3.5091,3.5137,3.5169,3.5187,3.5226,3.4987,3.4987,3.4987,3.4642,3.4656,3.4795,3.4831,3.4908,3.4967,3.5031,3.5084,3.5079,3.5135,3.5174,3.5323,3.536,3.5374,3.5414,3.5212,3.5212,3.5212,3.5212,3.486,3.4946,3.4934,3.5064,3.5079,3.519,3.5252,3.5244,3.535,3.5295,3.5336,3.5273,3.5397,3.5433,3.5217,3.5216,3.5216,3.5215,3.5215,3.499,3.5033,3.5069,3.5183,3.527,3.5302,3.5403,3.5415,3.5427,3.5467,3.5508,3.5507,3.5506,3.5486,3.5486,3.5487,3.5487,3.5488,3.5488,3.5109,3.5148,3.523,3.5311,3.5362,3.5431,3.5492,3.5543,3.5603,3.5604,3.5604,3.5592,3.5406,3.5358,3.5496,3.5495,3.5494,3.5493,3.5492,3.5322,3.5275,3.5403,3.5453,3.5549,3.5634,3.5647,3.575,3.5794,3.5843,3.5823,3.5684,3.5676,3.5662,3.5622,3.582,3.582,3.582,3.582,3.543,3.5427,3.5558,3.5638,3.5719,3.5743,3.5887,3.5935,3.5978,3.6007,3.598,3.5929,3.5914,3.5915,3.5895,3.5858,3.6112,3.6112,3.6112,3.5561,3.5566,3.5685,3.5724,3.5799,3.5864,3.5999,3.6093,3.6133,3.6124,3.6029,3.6017,3.5934,3.5907,3.5894,3.5863,3.5796,0,0]},{"header":{"parameterUnit":"m.s-1","parameterCategory":1,"la1":30.2992,"la2":30.254,"lo1":-89.0895,"lo2":-89.0443,"dy":0.0025,"dx":0.0025,"nx":19,"ny":19,"refTime":"2026-03-23T09:00:00:Z","depth":0,"parameterNumber":3,"parameterNumberName":"V-component_of_WINDS"},"data":[0,0,0,1.5979,1.5981,1.604,1.604,1.612,1.6121,0,0,0,0,0,0,0,0,0,0,0,1.5965,1.5965,1.5979,1.5981,1.604,1.604,1.612,1.6121,0,0,0,0,0,0,0,0,0,0,0,1.5964,1.5965,1.5966,1.5981,1.604,1.604,1.612,1.6073,0,0,0,0,0,0,0,0,0,0,1.6015,1.6005,1.5965,1.5966,1.5981,1.604,1.604,1.6071,1.6076,1.6095,0,1.6113,0,1.6118,1.6126,1.6127,0,0,0,1.5979,1.6001,1.6014,1.5966,1.5982,1.604,1.6013,1.6074,1.608,1.6102,1.6114,1.6117,1.6119,1.6127,1.6127,1.6243,1.6244,0,0,1.5975,1.5977,1.601,1.6018,1.6009,1.6011,1.6014,1.6078,1.6091,1.6114,1.6119,1.6121,1.6128,1.6128,1.6242,1.6243,0,0,0,1.5967,1.5975,1.5986,1.6015,1.6025,1.6012,1.6017,1.6088,1.6091,1.6119,1.6122,1.6128,1.6129,1.6242,1.6243,1.6276,0,0,0,1.5965,1.597,1.5985,1.5987,1.6024,1.6057,1.6026,1.6087,1.6094,1.6121,1.6128,1.613,1.6241,1.6242,1.6274,1.6292,0,0,0,1.596,1.597,1.5979,1.5987,1.6012,1.6056,1.6063,1.6089,1.6096,1.6127,1.613,1.6241,1.6242,1.6272,1.6289,1.6323,0,0,0,1.5955,1.6009,1.598,1.6041,1.6012,1.6076,1.6063,1.6111,1.6142,1.6129,1.6241,1.6243,1.6271,1.6286,1.6321,1.6352,1.6366,0,0,1.6024,1.6017,1.6053,1.6028,1.6099,1.6067,1.6142,1.6169,1.617,1.6218,1.6221,1.6275,1.6288,1.6322,1.6439,1.645,0,0,0,1.6075,1.6101,1.6119,1.6148,1.6169,1.6189,1.6203,1.6213,1.6254,1.6195,1.6296,1.6304,1.6324,1.6339,1.6348,1.6365,1.625,1.6249,1.6249,1.6176,1.6174,1.6233,1.6238,1.6266,1.628,1.6303,1.6318,1.6309,1.6332,1.6347,1.6418,1.6436,1.6443,1.646,1.6363,1.6363,1.6364,1.6364,1.6277,1.6313,1.6298,1.6349,1.6347,1.639,1.6405,1.6397,1.6436,1.6407,1.6425,1.6394,1.6454,1.647,1.6366,1.6366,1.6365,1.6365,1.6365,1.6343,1.636,1.637,1.6411,1.6443,1.6446,1.6485,1.6481,1.6478,1.6495,1.651,1.651,1.6509,1.6502,1.6503,1.6503,1.6503,1.6503,1.6503,1.6408,1.6418,1.6451,1.6477,1.6495,1.6518,1.6531,1.6549,1.6567,1.6561,1.6561,1.6549,1.6461,1.6439,1.6507,1.6507,1.6506,1.6506,1.6506,1.6512,1.6487,1.6538,1.6556,1.6586,1.6617,1.6611,1.6647,1.666,1.6679,1.6663,1.6598,1.6591,1.6584,1.6565,1.6663,1.6663,1.6663,1.6663,1.6568,1.6563,1.6614,1.6642,1.667,1.6669,1.6726,1.6737,1.6744,1.6752,1.6737,1.6713,1.6705,1.6703,1.6693,1.6676,1.6799,1.6799,1.68,1.6631,1.6629,1.6679,1.6685,1.6708,1.6727,1.6781,1.6813,1.6816,1.6805,1.6758,1.6753,1.6713,1.67,1.6688,1.6673,1.6642,0,0]}]]